Location: Ahstedt
(52.2048°N, 10.1060°E)
Time: 06:39:26
(UTC+00:00)

Meteor 2-10 Rocket - Pass Details

Date: 18 January 2026
Orbit: 733 x 881 km, 81.2° (Epoch: 18 February)

Event Time Altitude Azimuth Distance (km) Brightness Sun altitude
Rises 05:53:53 0° 225° (SW) 3,203 6.4 -12.5°
Reaches altitude 10° 05:56:28 10° 237° (WSW) 2,301 5.6 -12.2°
Maximum altitude 06:00:59 29° 297° (WNW) 1,404 4.3 -11.5°
Drops below altitude 10° 06:05:40 10° 357° (N) 2,397 5.8 -10.8°
Sets 06:08:25 0° 9° (N) 3,359 6.7 -10.4°
